Погода в Старой Синяве

Украина / Хмельницкая область     49°35′45″N   27°37′23″E
темп.,
°C
ветер,
м/с
пор.,
м/с
влажн.,
%
обл.,
%
осадки,
мм/ч
давл.,
гПа
погр.,
м
20 сентября, пн
пн2000:00+6з61089100 0.0 10111028
03:00+6зсз6991100 0.2 1011960
06:00+6зсз61094100 0.1 1011630
09:00+6зсз61194100 0.1 1012555
12:00+7зсз6989100 0.0 1013593
15:00+9зсз6879100 0.1 1014939
18:00+7зсз5885100 0.1 1015820
21:00+6зсз5887100 0.1 10161021
21 сентября, вт
вт2100:00+5зсз6891100 0.3 1017995
03:00+5зсз6991100 0.6 10181018
06:00+4зсз61193100 0.1 1018855
09:00+5зсз61191100 0.3 10191171
12:00+6сз71282100 0.1 10191070
15:00+8сз81271100 0.2 10201327
18:00+7сз71372100 0.0 10201239
21:00+6сз61179100 0.0 1021937
22 сентября, ср
ср2200:00+6сз61186100 0.0 1021818
03:00+6зсз61179100 0.0 1020870
06:00+6зсз51275100 0.0 1019889
09:00+7сз61073100 0.0 1018971
12:00+8сз6972100 0.1 10181108
15:00+7сз6884100 0.5 10181011
18:00+6сз6988100 0.3 1018932
21:00+5сз4894100 0.8 1018965
23 сентября, чт
чт2300:00+5сз5791100 0.3 1018871
03:00+5ссз4690100 0.5 1018950
06:00+5сз4792100 0.1 1017739
09:00+5сз4791100 0.3 1018802
12:00+5сз4692100 0.4 1018877
15:00+6сз4686100 0.6 1017703
18:00+7зсз358144 0.1 1017381
21:00+6зсз1187100 0.1 101710
24 сентября, пт
пт2400:00+4ююз339082 0.0 101635
03:00+6ююз3785100 0.0 1015178
06:00+7ююз4989100 0.0 1013245
09:00+8ююз51277100 0.0 1011356
12:00+13ююз71252100 0.0 1009829
15:00+10з71488100 1.4 1010785
18:00+12з7127455 1.2 10101077
21:00+9з51486100 1.3 1012441